| time (UTC) | temp C | wind direction | speed KPH | gust KPH | rain 1hr cm | rain 24hr cm | rain mn cm | humidity % | barometer mb |
| 20260508043839 | 7 | 135 | 0.0 | 1.6 | 0.00 | 0.00 | 0.00 | 56 | 1012.5 |
| 20260508043337 | 8 | 138 | 0.0 | 0.0 | 0.00 | 0.00 | 0.00 | 57 | 1012.6 |
| 20260508042833 | 8 | 133 | 0.0 | 0.0 | 0.00 | 0.00 | 0.00 | 55 | 1012.6 |
| 20260508042331 | 8 | 84 | 0.0 | 4.8 | 0.00 | 0.00 | 0.00 | 55 | 1012.4 |
| 20260508041827 | 8 | 128 | 1.6 | 4.8 | 0.00 | 0.00 | 0.00 | 55 | 1012.6 |
| 20260508041324 | 8 | 214 | 4.8 | 9.7 | 0.00 | 0.00 | 0.00 | 54 | 1012.3 |
| 20260508040820 | 8 | 302 | 3.2 | 3.2 | 0.00 | 0.00 | 0.00 | 56 | 1012.2 |
| 20260508040318 | 8 | 185 | 0.0 | 8.0 | 0.00 | 0.00 | 0.00 | 55 | 1012.2 |
| 20260508035815 | 8 | 270 | 6.4 | 8.0 | 0.00 | 0.00 | 0.00 | 53 | 1012.1 |
| 20260508035312 | 8 | 87 | 1.6 | 3.2 | 0.00 | 0.00 | 0.00 | 55 | 1012.3 |
| 20260508034809 | 9 | 259 | 3.2 | 3.2 | 0.00 | 0.00 | 0.00 | 54 | 1012.2 |
| 20260508034306 | 9 | 276 | 3.2 | 3.2 | 0.00 | 0.00 | 0.00 | 53 | 1011.8 |
| 20260508033803 | 8 | 170 | 1.6 | 8.0 | 0.00 | 0.00 | 0.00 | 51 | 1012.0 |
| 20260508033301 | 8 | 135 | 0.0 | 1.6 | 0.00 | 0.00 | 0.00 | 56 | 1011.8 |
| 20260508032758 | 8 | 288 | 0.0 | 4.8 | 0.00 | 0.00 | 0.00 | 53 | 1011.8 |
| 20260508032255 | 8 | 264 | 3.2 | 3.2 | 0.00 | 0.00 | 0.00 | 55 | 1011.8 |
| 20260508031752 | 8 | 251 | 3.2 | 3.2 | 0.00 | 0.00 | 0.00 | 55 | 1011.8 |
| 20260508031249 | 8 | 227 | 0.0 | 0.0 | 0.00 | 0.00 | 0.00 | 55 | 1011.7 |
| 20260508030745 | 8 | 249 | 0.0 | 0.0 | 0.00 | 0.00 | 0.00 | 55 | 1011.7 |
| 20260508030243 | 8 | 198 | 0.0 | 0.0 | 0.00 | 0.00 | 0.00 | 56 | 1011.5 |
| 20260508025739 | 10 | 155 | 0.0 | 3.2 | 0.00 | 0.00 | 0.00 | 52 | 1011.3 |
| 20260508025236 | 8 | 262 | 3.2 | 8.0 | 0.00 | 0.00 | 0.00 | 55 | 1011.4 |
| 20260508024732 | 9 | 269 | 3.2 | 3.2 | 0.00 | 0.00 | 0.00 | 56 | 1011.4 |
| 20260508024229 | 9 | 282 | 1.6 | 3.2 | 0.00 | 0.00 | 0.00 | 54 | 1011.3 |
| 20260508023726 | 9 | 306 | 4.8 | 4.8 | 0.00 | 0.00 | 0.00 | 55 | 1011.4 |
| 20260508023224 | 9 | 184 | 0.0 | 3.2 | 0.00 | 0.00 | 0.00 | 56 | 1011.3 |
| 20260508022719 | 10 | 122 | 0.0 | 0.0 | 0.00 | 0.00 | 0.00 | 58 | 1011.2 |
| 20260508022216 | 10 | 300 | 1.6 | 4.8 | 0.00 | 0.00 | 0.00 | 57 | 1011.5 |
| 20260508021713 | 10 | 243 | 1.6 | 3.2 | 0.00 | 0.00 | 0.00 | 55 | 1011.2 |
| 20260508021208 | 10 | 260 | 1.6 | 3.2 | 0.00 | 0.00 | 0.00 | 57 | 1011.2 |
| 20260508020706 | 10 | 278 | 3.2 | 3.2 | 0.00 | 0.00 | 0.00 | 57 | 1011.3 |
| 20260508020203 | 10 | 115 | 1.6 | 8.0 | 0.00 | 0.00 | 0.00 | 56 | 1011.2 |
| 20260508015700 | 10 | 278 | 0.0 | 0.0 | 0.00 | 0.00 | 0.00 | 58 | 1011.5 |
| 20260508015157 | 10 | 194 | 0.0 | 0.0 | 0.00 | 0.00 | 0.00 | 57 | 1011.0 |
| 20260508014653 | 10 | 240 | 1.6 | 3.2 | 0.00 | 0.00 | 0.00 | 59 | 1011.1 |
| 20260508014149 | 10 | 218 | 3.2 | 3.2 | 0.00 | 0.00 | 0.00 | 55 | 1011.1 |
| 20260508013646 | 10 | 213 | 0.0 | 0.0 | 0.00 | 0.00 | 0.00 | 58 | 1011.1 |
| 20260508013142 | 10 | 186 | 1.6 | 12.9 | 0.00 | 0.00 | 0.00 | 54 | 1010.7 |
| 20260508012640 | 10 | 181 | 4.8 | 8.0 | 0.00 | 0.00 | 0.00 | 56 | 1010.7 |
| 20260508012137 | 10 | 231 | 3.2 | 3.2 | 0.00 | 0.00 | 0.00 | 57 | 1010.7 |
| 20260508011636 | 10 | 296 | 4.8 | 4.8 | 0.00 | 0.00 | 0.00 | 56 | 1010.6 |
| 20260508011133 | 10 | 288 | 3.2 | 8.0 | 0.00 | 0.00 | 0.00 | 57 | 1010.5 |
| 20260508010629 | 10 | 142 | 0.0 | 3.2 | 0.00 | 0.00 | 0.00 | 56 | 1010.4 |
| 20260508010128 | 10 | 172 | 0.0 | 1.6 | 0.00 | 0.00 | 0.00 | 57 | 1010.4 |
| 20260508005624 | 10 | 317 | 1.6 | 3.2 | 0.00 | 0.00 | 0.00 | 56 | 1010.0 |
| 20260508005120 | 10 | 277 | 1.6 | 3.2 | 0.00 | 0.00 | 0.00 | 57 | 1010.1 |
| 20260508004616 | 11 | 264 | 1.6 | 4.8 | 0.00 | 0.00 | 0.00 | 55 | 1010.1 |
| 20260508004113 | 11 | 205 | 3.2 | 3.2 | 0.00 | 0.00 | 0.00 | 54 | 1010.1 |
| 20260508003609 | 10 | 277 | 0.0 | 0.0 | 0.00 | 0.00 | 0.00 | 58 | 1010.1 |
| 20260508003107 | 11 | 223 | 0.0 | 3.2 | 0.00 | 0.00 | 0.00 | 55 | 1010.0 |
| 20260508002603 | 11 | 163 | 1.6 | 8.0 | 0.00 | 0.00 | 0.00 | 54 | 1010.0 |
| 20260508002101 | 11 | 162 | 1.6 | 4.8 | 0.00 | 0.00 | 0.00 | 53 | 1009.9 |
| 20260508001556 | 11 | 164 | 0.0 | 4.8 | 0.00 | 0.00 | 0.00 | 53 | 1010.1 |
| 20260508001053 | 12 | 166 | 3.2 | 4.8 | 0.00 | 0.00 | 0.00 | 52 | 1009.9 |
| 20260508000548 | 12 | 217 | 1.6 | 3.2 | 0.00 | 0.00 | 0.00 | 50 | 1009.7 |
| 20260508000046 | 12 | 139 | 0.0 | 1.6 | 0.00 | 0.00 | 0.00 | 53 | 1009.6 |
| 20260507235543 | 12 | 141 | 1.6 | 4.8 | 0.00 | 0.00 | 0.00 | 50 | 1009.5 |
| 20260507235040 | 12 | 155 | 0.0 | 3.2 | 0.00 | 0.00 | 0.00 | 49 | 1009.6 |
| 20260507234536 | 12 | 130 | 3.2 | 8.0 | 0.00 | 0.00 | 0.00 | 48 | 1009.3 |
| 20260507234033 | 12 | 287 | 1.6 | 3.2 | 0.00 | 0.00 | 0.00 | 51 | 1009.3 |
| 20260507233530 | 12 | 106 | 0.0 | 4.8 | 0.00 | 0.00 | 0.00 | 48 | 1009.4 |
| 20260507233029 | 12 | 162 | 0.0 | 0.0 | 0.00 | 0.00 | 0.00 | 51 | 1009.2 |
| 20260507232524 | 13 | 77 | 1.6 | 1.6 | 0.00 | 0.00 | 0.00 | 47 | 1009.3 |
| 20260507232022 | 13 | 111 | 1.6 | 1.6 | 0.00 | 0.00 | 0.00 | 50 | 1009.2 |
| 20260507231518 | 12 | 119 | 0.0 | 0.0 | 0.00 | 0.00 | 0.00 | 47 | 1009.2 |
| 20260507231016 | 13 | 150 | 0.0 | 1.6 | 0.00 | 0.00 | 0.00 | 50 | 1009.1 |
| 20260507230512 | 13 | 253 | 1.6 | 3.2 | 0.00 | 0.00 | 0.00 | 50 | 1008.8 |
| 20260507230009 | 13 | 145 | 0.0 | 4.8 | 0.00 | 0.00 | 0.00 | 46 | 1008.6 |
| 20260507225504 | 13 | 155 | 0.0 | 9.7 | 0.00 | 0.00 | 0.00 | 45 | 1008.6 |
| 20260507225000 | 13 | 210 | 3.2 | 4.8 | 0.00 | 0.00 | 0.00 | 48 | 1008.6 |
| 20260507224456 | 13 | 289 | 3.2 | 9.7 | 0.00 | 0.00 | 0.00 | 47 | 1008.6 |
| 20260507223953 | 14 | 154 | 3.2 | 9.7 | 0.00 | 0.00 | 0.00 | 47 | 1008.9 |
| 20260507223449 | 13 | 210 | 1.6 | 3.2 | 0.00 | 0.00 | 0.00 | 48 | 1008.4 |
| 20260507222946 | 13 | 129 | 1.6 | 3.2 | 0.00 | 0.00 | 0.00 | 48 | 1008.4 |
| 20260507222443 | 13 | 84 | 4.8 | 8.0 | 0.00 | 0.00 | 0.00 | 47 | 1008.3 |
| 20260507221939 | 14 | 138 | 1.6 | 16.1 | 0.00 | 0.00 | 0.00 | 47 | 1008.3 |
| 20260507221436 | 14 | 75 | 3.2 | 3.2 | 0.00 | 0.00 | 0.00 | 48 | 1008.4 |
| 20260507220932 | 14 | 115 | 4.8 | 8.0 | 0.00 | 0.00 | 0.00 | 45 | 1008.1 |
| 20260507220430 | 15 | 191 | 4.8 | 8.0 | 0.00 | 0.00 | 0.00 | 46 | 1008.1 |
| 20260507215927 | 15 | 308 | 4.8 | 16.1 | 0.00 | 0.00 | 0.00 | 48 | 1008.0 |
| 20260507215423 | 15 | 208 | 4.8 | 9.7 | 0.00 | 0.00 | 0.00 | 45 | 1008.0 |
| 20260507214920 | 16 | 213 | 1.6 | 12.9 | 0.00 | 0.00 | 0.00 | 45 | 1007.6 |
| 20260507214418 | 16 | 135 | 1.6 | 8.0 | 0.00 | 0.00 | 0.00 | 47 | 1007.9 |
| 20260507213913 | 16 | 163 | 1.6 | 4.8 | 0.00 | 0.00 | 0.00 | 48 | 1007.6 |
| 20260507213410 | 16 | 120 | 6.4 | 9.7 | 0.00 | 0.00 | 0.00 | 43 | 1007.6 |
| 20260507212907 | 16 | 108 | 3.2 | 9.7 | 0.00 | 0.00 | 0.00 | 43 | 1007.7 |
| 20260507212403 | 16 | 195 | 1.6 | 4.8 | 0.00 | 0.00 | 0.00 | 47 | 1007.8 |
| 20260507211900 | 16 | 69 | 6.4 | 11.3 | 0.00 | 0.00 | 0.00 | 44 | 1007.8 |
| 20260507211356 | 16 | 336 | 3.2 | 12.9 | 0.00 | 0.00 | 0.00 | 47 | 1007.9 |
| 20260507210853 | 16 | 258 | 1.6 | 3.2 | 0.00 | 0.00 | 0.00 | 46 | 1007.8 |
| 20260507210350 | 16 | 267 | 1.6 | 3.2 | 0.00 | 0.00 | 0.00 | 46 | 1007.6 |
| 20260507205847 | 16 | 211 | 1.6 | 4.8 | 0.00 | 0.00 | 0.00 | 46 | 1007.7 |
| 20260507205344 | 16 | 44 | 3.2 | 9.7 | 0.00 | 0.00 | 0.00 | 45 | 1007.6 |
| 20260507204840 | 16 | 74 | 6.4 | 11.3 | 0.00 | 0.00 | 0.00 | 48 | 1007.8 |
| 20260507204337 | 16 | 121 | 0.0 | 3.2 | 0.00 | 0.00 | 0.00 | 47 | 1007.5 |
| 20260507203835 | 17 | 114 | 1.6 | 3.2 | 0.00 | 0.00 | 0.00 | 46 | 1007.7 |
| 20260507203333 | 17 | 95 | 6.4 | 8.0 | 0.00 | 0.00 | 0.00 | 45 | 1007.6 |
| 20260507202828 | 17 | 312 | 3.2 | 9.7 | 0.00 | 0.00 | 0.00 | 46 | 1007.5 |
| 20260507202325 | 17 | 103 | 3.2 | 4.8 | 0.00 | 0.00 | 0.00 | 48 | 1007.5 |
| 20260507201821 | 17 | 145 | 1.6 | 11.3 | 0.00 | 0.00 | 0.00 | 44 | 1007.7 |
| 20260507201317 | 17 | 330 | 3.2 | 12.9 | 0.00 | 0.00 | 0.00 | 46 | 1007.7 |
| 20260507200813 | 17 | 69 | 3.2 | 8.0 | 0.00 | 0.00 | 0.00 | 44 | 1007.7 |
| 20260507200309 | 18 | 73 | 3.2 | 8.0 | 0.00 | 0.00 | 0.00 | 42 | 1007.7 |
| 20260507195805 | 18 | 234 | 1.6 | 9.7 | 0.00 | 0.00 | 0.00 | 42 | 1007.7 |
| 20260507195305 | 18 | 230 | 1.6 | 8.0 | 0.00 | 0.00 | 0.00 | 46 | 1007.6 |
| 20260507194800 | 17 | 6 | 1.6 | 3.2 | 0.00 | 0.00 | 0.00 | 44 | 1007.8 |
| 20260507194256 | 18 | 298 | 3.2 | 11.3 | 0.00 | 0.00 | 0.00 | 43 | 1007.8 |
| 20260507193753 | 17 | 109 | 4.8 | 8.0 | 0.00 | 0.00 | 0.00 | 43 | 1007.8 |
| 20260507193249 | 17 | 112 | 0.0 | 8.0 | 0.00 | 0.00 | 0.00 | 47 | 1007.8 |
| 20260507192745 | 16 | 41 | 3.2 | 3.2 | 0.00 | 0.00 | 0.00 | 47 | 1007.9 |
| 20260507192242 | 17 | 107 | 1.6 | 11.3 | 0.00 | 0.00 | 0.00 | 47 | 1007.9 |
| 20260507191738 | 18 | 223 | 8.0 | 9.7 | 0.00 | 0.00 | 0.00 | 42 | 1007.9 |
| 20260507191235 | 18 | 111 | 6.4 | 8.0 | 0.00 | 0.00 | 0.00 | 47 | 1007.8 |
| 20260507190732 | 17 | 91 | 4.8 | 4.8 | 0.00 | 0.00 | 0.00 | 51 | 1008.0 |
| 20260507190231 | 17 | 177 | 4.8 | 8.0 | 0.00 | 0.00 | 0.00 | 46 | 1008.0 |
| 20260507185729 | 17 | 311 | 3.2 | 8.0 | 0.00 | 0.00 | 0.00 | 48 | 1008.1 |
| 20260507185225 | 18 | 267 | 4.8 | 4.8 | 0.00 | 0.00 | 0.00 | 46 | 1008.0 |
| 20260507184723 | 18 | 313 | 4.8 | 8.0 | 0.00 | 0.00 | 0.00 | 46 | 1008.0 |
| 20260507184221 | 18 | 269 | 3.2 | 3.2 | 0.00 | 0.00 | 0.00 | 50 | 1008.1 |
| 20260507183717 | 17 | 159 | 3.2 | 9.7 | 0.00 | 0.00 | 0.00 | 50 | 1007.9 |
| 20260507183214 | 17 | 116 | 1.6 | 4.8 | 0.00 | 0.00 | 0.00 | 49 | 1008.1 |
| 20260507182711 | 17 | 302 | 8.0 | 9.7 | 0.00 | 0.00 | 0.00 | 51 | 1008.0 |
| 20260507182206 | 16 | 101 | 1.6 | 4.8 | 0.00 | 0.00 | 0.00 | 52 | 1008.1 |
| 20260507181703 | 17 | 179 | 3.2 | 9.7 | 0.00 | 0.00 | 0.00 | 51 | 1008.1 |
| 20260507181200 | 17 | 104 | 3.2 | 11.3 | 0.00 | 0.00 | 0.00 | 56 | 1008.2 |
| 20260507180656 | 16 | 98 | 1.6 | 3.2 | 0.00 | 0.00 | 0.00 | 51 | 1008.3 |
| 20260507180154 | 17 | 114 | 4.8 | 9.7 | 0.00 | 0.00 | 0.00 | 55 | 1008.3 |
| 20260507175649 | 17 | 317 | 4.8 | 8.0 | 0.00 | 0.00 | 0.00 | 52 | 1008.3 |
| 20260507175146 | 16 | 94 | 6.4 | 11.3 | 0.00 | 0.00 | 0.00 | 55 | 1008.4 |
| 20260507174643 | 16 | 145 | 3.2 | 12.9 | 0.00 | 0.00 | 0.00 | 52 | 1008.5 |
| 20260507174142 | 17 | 107 | 4.8 | 8.0 | 0.00 | 0.00 | 0.00 | 53 | 1008.8 |
| 20260507173639 | 17 | 220 | 3.2 | 8.0 | 0.00 | 0.00 | 0.00 | 51 | 1008.8 |
| 20260507173135 | 17 | 230 | 1.6 | 3.2 | 0.00 | 0.00 | 0.00 | 53 | 1008.9 |
| 20260507172632 | 17 | 306 | 4.8 | 8.0 | 0.00 | 0.00 | 0.00 | 55 | 1008.9 |
| 20260507172129 | 17 | 64 | 1.6 | 4.8 | 0.00 | 0.00 | 0.00 | 55 | 1009.0 |
| 20260507171624 | 17 | 171 | 0.0 | 9.7 | 0.00 | 0.00 | 0.00 | 54 | 1009.2 |
| 20260507171121 | 17 | 44 | 4.8 | 11.3 | 0.00 | 0.00 | 0.00 | 53 | 1009.0 |
| 20260507170619 | 17 | 35 | 6.4 | 9.7 | 0.00 | 0.00 | 0.00 | 53 | 1009.0 |
| 20260507170115 | 16 | 104 | 1.6 | 4.8 | 0.00 | 0.00 | 0.00 | 57 | 1009.1 |
| 20260507165611 | 16 | 77 | 4.8 | 11.3 | 0.00 | 0.00 | 0.00 | 56 | 1009.3 |
| 20260507165108 | 16 | 148 | 3.2 | 9.7 | 0.00 | 0.00 | 0.00 | 56 | 1009.4 |
| 20260507164604 | 16 | 141 | 4.8 | 9.7 | 0.00 | 0.00 | 0.00 | 57 | 1009.5 |
| 20260507164101 | 15 | 194 | 1.6 | 9.7 | 0.00 | 0.00 | 0.00 | 60 | 1009.4 |
| 20260507163558 | 15 | 125 | 1.6 | 3.2 | 0.00 | 0.00 | 0.00 | 58 | 1009.7 |
| 20260507163056 | 15 | 335 | 1.6 | 8.0 | 0.00 | 0.00 | 0.00 | 59 | 1009.5 |
| 20260507162555 | 15 | 97 | 4.8 | 8.0 | 0.00 | 0.00 | 0.00 | 58 | 1009.5 |
| 20260507162053 | 15 | 131 | 1.6 | 4.8 | 0.00 | 0.00 | 0.00 | 59 | 1009.7 |
| 20260507161549 | 15 | 147 | 1.6 | 1.6 | 0.00 | 0.00 | 0.00 | 59 | 1009.5 |
| 20260507161046 | 14 | 33 | 1.6 | 4.8 | 0.00 | 0.00 | 0.00 | 61 | 1009.7 |
| 20260507160542 | 15 | 151 | 4.8 | 9.7 | 0.00 | 0.00 | 0.00 | 61 | 1009.7 |
| 20260507160038 | 14 | 179 | 3.2 | 4.8 | 0.00 | 0.00 | 0.00 | 59 | 1009.8 |
| 20260507155534 | 14 | 65 | 6.4 | 9.7 | 0.00 | 0.00 | 0.00 | 61 | 1009.9 |
| 20260507155031 | 13 | 130 | 0.0 | 4.8 | 0.00 | 0.00 | 0.00 | 61 | 1010.0 |
| 20260507154528 | 14 | 115 | 1.6 | 11.3 | 0.00 | 0.00 | 0.00 | 62 | 1010.0 |
| 20260507154025 | 13 | 85 | 3.2 | 8.0 | 0.00 | 0.00 | 0.00 | 66 | 1010.2 |
| 20260507153522 | 13 | 73 | 4.8 | 9.7 | 0.00 | 0.00 | 0.00 | 65 | 1010.2 |
| 20260507153018 | 13 | 97 | 6.4 | 8.0 | 0.00 | 0.00 | 0.00 | 65 | 1010.0 |
| 20260507152514 | 12 | 103 | 9.7 | 11.3 | 0.00 | 0.00 | 0.00 | 65 | 1010.2 |
| 20260507152011 | 12 | 134 | 6.4 | 9.7 | 0.00 | 0.00 | 0.00 | 66 | 1010.4 |
| 20260507151507 | 12 | 128 | 4.8 | 9.7 | 0.00 | 0.00 | 0.00 | 66 | 1010.2 |
| 20260507151004 | 12 | 88 | 8.0 | 14.5 | 0.00 | 0.00 | 0.00 | 67 | 1010.4 |
| 20260507150501 | 12 | 84 | 4.8 | 9.7 | 0.00 | 0.00 | 0.00 | 64 | 1010.1 |
| 20260507145957 | 13 | 80 | 3.2 | 8.0 | 0.00 | 0.00 | 0.00 | 64 | 1010.4 |
| 20260507145452 | 12 | 194 | 0.0 | 3.2 | 0.00 | 0.00 | 0.00 | 61 | 1010.6 |
| 20260507144950 | 12 | 215 | 1.6 | 4.8 | 0.00 | 0.00 | 0.00 | 63 | 1010.6 |
| 20260507144447 | 13 | 69 | 9.7 | 11.3 | 0.00 | 0.00 | 0.00 | 62 | 1010.6 |
| 20260507143943 | 12 | 104 | 0.0 | 3.2 | 0.00 | 0.00 | 0.00 | 62 | 1010.9 |
| 20260507143441 | 12 | 203 | 3.2 | 3.2 | 0.00 | 0.00 | 0.00 | 66 | 1010.6 |
| 20260507142938 | 12 | 134 | 3.2 | 4.8 | 0.00 | 0.00 | 0.00 | 66 | 1010.8 |
| 20260507142433 | 12 | 75 | 3.2 | 4.8 | 0.00 | 0.00 | 0.00 | 64 | 1010.9 |
| 20260507141931 | 11 | 76 | 1.6 | 4.8 | 0.00 | 0.00 | 0.00 | 67 | 1011.0 |
| 20260507141427 | 11 | 143 | 1.6 | 4.8 | 0.00 | 0.00 | 0.00 | 67 | 1011.0 |
| 20260507140924 | 11 | 74 | 6.4 | 8.0 | 0.00 | 0.00 | 0.00 | 68 | 1011.1 |
| 20260507140420 | 10 | 79 | 6.4 | 9.7 | 0.00 | 0.00 | 0.00 | 70 | 1011.3 |
| 20260507135918 | 10 | 62 | 1.6 | 4.8 | 0.00 | 0.00 | 0.00 | 72 | 1011.3 |
| 20260507135414 | 10 | 78 | 6.4 | 9.7 | 0.00 | 0.00 | 0.00 | 71 | 1011.4 |
| 20260507134912 | 10 | 65 | 4.8 | 8.0 | 0.00 | 0.00 | 0.00 | 74 | 1011.2 |
| 20260507134408 | 10 | 65 | 4.8 | 9.7 | 0.00 | 0.00 | 0.00 | 73 | 1011.5 |
| 20260507133904 | 10 | 81 | 1.6 | 4.8 | 0.00 | 0.00 | 0.00 | 74 | 1011.3 |
| 20260507133400 | 10 | 79 | 1.6 | 3.2 | 0.00 | 0.00 | 0.00 | 78 | 1011.4 |
| 20260507132859 | 10 | 91 | 1.6 | 4.8 | 0.00 | 0.00 | 0.00 | 81 | 1011.5 |
| 20260507132355 | 10 | 87 | 3.2 | 3.2 | 0.00 | 0.00 | 0.00 | 81 | 1011.6 |
| 20260507131852 | 10 | 69 | 3.2 | 8.0 | 0.00 | 0.00 | 0.00 | 82 | 1011.4 |
| 20260507131349 | 10 | 58 | 4.8 | 4.8 | 0.00 | 0.00 | 0.00 | 82 | 1011.7 |
| 20260507130846 | 10 | 127 | 0.0 | 0.0 | 0.00 | 0.00 | 0.00 | 82 | 1011.7 |
| 20260507130343 | 10 | 115 | 0.0 | 0.0 | 0.00 | 0.00 | 0.00 | 84 | 1011.7 |
| 20260507125842 | 10 | 118 | 0.0 | 4.8 | 0.00 | 0.00 | 0.00 | 84 | 1012.0 |
| 20260507125339 | 10 | 130 | 1.6 | 1.6 | 0.00 | 0.00 | 0.00 | 85 | 1011.8 |
| 20260507124836 | 9 | 151 | 0.0 | 1.6 | 0.00 | 0.00 | 0.00 | 86 | 1011.7 |
| 20260507124332 | 9 | 82 | 1.6 | 3.2 | 0.00 | 0.00 | 0.00 | 87 | 1011.8 |
| 20260507123831 | 9 | 178 | 0.0 | 0.0 | 0.00 | 0.00 | 0.00 | 88 | 1011.7 |
| 20260507123328 | 9 | 83 | 1.6 | 3.2 | 0.00 | 0.00 | 0.00 | 89 | 1011.4 |
| 20260507122824 | 9 | 86 | 1.6 | 8.0 | 0.00 | 0.00 | 0.00 | 88 | 1011.6 |
| 20260507122319 | 9 | 107 | 1.6 | 4.8 | 0.00 | 0.00 | 0.00 | 88 | 1011.4 |
| 20260507121816 | 9 | 323 | 1.6 | 3.2 | 0.00 | 0.00 | 0.00 | 89 | 1011.4 |
| 20260507121311 | 9 | 89 | 1.6 | 3.2 | 0.00 | 0.00 | 0.00 | 89 | 1011.3 |
| 20260507120808 | 9 | 72 | 0.0 | 1.6 | 0.00 | 0.00 | 0.00 | 89 | 1011.2 |
| 20260507120304 | 9 | 69 | 1.6 | 3.2 | 0.00 | 0.00 | 0.00 | 89 | 1011.0 |
| 20260507115801 | 9 | 80 | 1.6 | 3.2 | 0.00 | 0.00 | 0.00 | 88 | 1011.2 |
| 20260507115256 | 9 | 89 | 0.0 | 0.0 | 0.00 | 0.00 | 0.00 | 88 | 1011.2 |
| 20260507114752 | 9 | 57 | 6.4 | 8.0 | 0.00 | 0.00 | 0.00 | 89 | 1011.1 |
| 20260507114250 | 9 | 111 | 0.0 | 1.6 | 0.00 | 0.00 | 0.00 | 89 | 1011.0 |
| 20260507113747 | 9 | 64 | 3.2 | 4.8 | 0.00 | 0.00 | 0.00 | 89 | 1010.9 |
| 20260507113244 | 9 | 76 | 0.0 | 3.2 | 0.00 | 0.00 | 0.00 | 89 | 1011.1 |
| 20260507112742 | 9 | 74 | 3.2 | 3.2 | 0.00 | 0.00 | 0.00 | 89 | 1010.9 |
| 20260507112238 | 9 | 39 | 0.0 | 1.6 | 0.00 | 0.00 | 0.00 | 89 | 1010.8 |
| 20260507111737 | 9 | 89 | 0.0 | 1.6 | 0.00 | 0.00 | 0.00 | 90 | 1010.8 |
| 20260507111233 | 9 | 82 | 1.6 | 3.2 | 0.00 | 0.00 | 0.00 | 90 | 1010.6 |
| 20260507110728 | 9 | 91 | 1.6 | 1.6 | 0.00 | 0.00 | 0.00 | 90 | 1010.8 |
| 20260507110225 | 9 | 91 | 1.6 | 1.6 | 0.00 | 0.00 | 0.00 | 90 | 1010.5 |
| 20260507105722 | 9 | 312 | 0.0 | 0.0 | 0.00 | 0.00 | 0.00 | 90 | 1010.6 |
| 20260507105218 | 9 | 319 | 0.0 | 0.0 | 0.00 | 0.00 | 0.00 | 91 | 1010.5 |
| 20260507104716 | 9 | 320 | 0.0 | 0.0 | 0.00 | 0.00 | 0.00 | 91 | 1010.9 |
| 20260507104212 | 9 | 320 | 0.0 | 1.6 | 0.00 | 0.00 | 0.00 | 91 | 1010.7 |
| 20260507103708 | 8 | 336 | 1.6 | 1.6 | 0.00 | 0.00 | 0.00 | 90 | 1010.6 |
| 20260507103205 | 8 | 292 | 1.6 | 1.6 | 0.00 | 0.00 | 0.00 | 91 | 1010.0 |
| 20260507102701 | 8 | 319 | 0.0 | 0.0 | 0.00 | 0.00 | 0.00 | 91 | 1010.5 |
| 20260507102158 | 8 | 308 | 0.0 | 0.0 | 0.00 | 0.00 | 0.00 | 91 | 1010.5 |
| 20260507101653 | 8 | 308 | 0.0 | 0.0 | 0.00 | 0.00 | 0.00 | 91 | 1010.5 |
| 20260507101149 | 8 | 307 | 1.6 | 1.6 | 0.00 | 0.00 | 0.00 | 92 | 1010.6 |
| 20260507100647 | 8 | 307 | 1.6 | 1.6 | 0.00 | 0.00 | 0.00 | 92 | 1010.8 |
| 20260507100145 | 8 | 307 | 0.0 | 1.6 | 0.00 | 0.00 | 0.00 | 92 | 1010.4 |
| 20260507095643 | 8 | 314 | 0.0 | 1.6 | 0.00 | 0.00 | 0.00 | 92 | 1010.5 |
| 20260507095139 | 8 | 318 | 3.2 | 3.2 | 0.00 | 0.00 | 0.00 | 93 | 1010.2 |
| 20260507094635 | 8 | 99 | 0.0 | 0.0 | 0.00 | 0.00 | 0.00 | 93 | 1010.2 |
| 20260507094132 | 8 | 189 | 0.0 | 1.6 | 0.00 | 0.00 | 0.00 | 93 | 1010.5 |
| 20260507093630 | 8 | 255 | 1.6 | 3.2 | 0.00 | 0.00 | 0.00 | 93 | 1010.5 |
| 20260507093128 | 8 | 277 | 0.0 | 1.6 | 0.00 | 0.00 | 0.00 | 93 | 1010.4 |
| 20260507092625 | 8 | 275 | 3.2 | 3.2 | 0.00 | 0.00 | 0.00 | 93 | 1010.1 |
| 20260507092121 | 8 | 14 | 3.2 | 3.2 | 0.00 | 0.00 | 0.00 | 92 | 1010.1 |
| 20260507091618 | 8 | 199 | 1.6 | 3.2 | 0.00 | 0.00 | 0.00 | 92 | 1010.4 |
| 20260507091114 | 8 | 112 | 1.6 | 3.2 | 0.00 | 0.00 | 0.00 | 92 | 1010.2 |
| 20260507090610 | 8 | 324 | 3.2 | 4.8 | 0.00 | 0.00 | 0.00 | 91 | 1009.9 |
| 20260507090107 | 8 | 298 | 0.0 | 3.2 | 0.00 | 0.00 | 0.00 | 91 | 1010.1 |
| 20260507085604 | 8 | 298 | 1.6 | 3.2 | 0.00 | 0.00 | 0.00 | 91 | 1010.2 |
| 20260507085101 | 8 | 217 | 1.6 | 1.6 | 0.00 | 0.00 | 0.00 | 91 | 1009.9 |
| 20260507084557 | 8 | 234 | 1.6 | 3.2 | 0.00 | 0.00 | 0.00 | 91 | 1010.2 |
| 20260507084055 | 9 | 135 | 0.0 | 1.6 | 0.00 | 0.00 | 0.00 | 91 | 1009.9 |
| 20260507083550 | 9 | 87 | 1.6 | 1.6 | 0.00 | 0.00 | 0.00 | 91 | 1010.1 |
| 20260507083048 | 9 | 87 | 1.6 | 3.2 | 0.00 | 0.00 | 0.00 | 91 | 1010.1 |
| 20260507082544 | 9 | 83 | 1.6 | 1.6 | 0.00 | 0.00 | 0.00 | 91 | 1010.0 |
| 20260507082041 | 9 | 67 | 0.0 | 4.8 | 0.00 | 0.00 | 0.00 | 91 | 1010.2 |
| 20260507081537 | 9 | 65 | 3.2 | 3.2 | 0.00 | 0.00 | 0.00 | 90 | 1010.0 |
| 20260507081034 | 10 | 53 | 3.2 | 4.8 | 0.00 | 0.00 | 0.00 | 89 | 1010.1 |
| 20260507080529 | 10 | 76 | 4.8 | 4.8 | 0.00 | 0.00 | 0.00 | 89 | 1010.2 |
| 20260507080026 | 10 | 97 | 0.0 | 4.8 | 0.00 | 0.00 | 0.00 | 89 | 1010.1 |
| 20260507075521 | 10 | 92 | 1.6 | 3.2 | 0.00 | 0.00 | 0.00 | 89 | 1010.4 |
| 20260507075018 | 10 | 64 | 3.2 | 3.2 | 0.00 | 0.00 | 0.00 | 89 | 1010.4 |
| 20260507074515 | 10 | 72 | 1.6 | 1.6 | 0.00 | 0.00 | 0.00 | 89 | 1010.5 |
| 20260507074014 | 10 | 94 | 1.6 | 3.2 | 0.00 | 0.00 | 0.00 | 89 | 1010.4 |
| 20260507073509 | 10 | 83 | 6.4 | 8.0 | 0.00 | 0.00 | 0.00 | 89 | 1010.4 |
| 20260507073006 | 10 | 80 | 1.6 | 8.0 | 0.00 | 0.00 | 0.00 | 89 | 1010.2 |
| 20260507072504 | 10 | 102 | 3.2 | 4.8 | 0.00 | 0.00 | 0.00 | 89 | 1009.9 |
| 20260507072000 | 10 | 75 | 0.0 | 8.0 | 0.00 | 0.00 | 0.00 | 88 | 1010.2 |
| 20260507071457 | 10 | 120 | 4.8 | 4.8 | 0.00 | 0.00 | 0.00 | 88 | 1010.1 |
| 20260507070954 | 10 | 95 | 0.0 | 1.6 | 0.00 | 0.00 | 0.00 | 89 | 1010.2 |
| 20260507070451 | 10 | 88 | 4.8 | 8.0 | 0.00 | 0.00 | 0.00 | 89 | 1009.9 |
| 20260507065948 | 10 | 79 | 4.8 | 9.7 | 0.00 | 0.00 | 0.00 | 89 | 1009.9 |
| 20260507065445 | 10 | 96 | 0.0 | 8.0 | 0.00 | 0.00 | 0.00 | 89 | 1010.0 |
| 20260507064942 | 10 | 72 | 4.8 | 8.0 | 0.00 | 0.00 | 0.00 | 90 | 1009.9 |
| 20260507064440 | 10 | 73 | 1.6 | 9.7 | 0.00 | 0.00 | 0.00 | 90 | 1009.8 |
| 20260507063938 | 11 | 40 | 8.0 | 12.9 | 0.00 | 0.00 | 0.00 | 90 | 1009.8 |
| 20260507063434 | 11 | 82 | 6.4 | 11.3 | 0.00 | 0.00 | 0.00 | 90 | 1010.0 |
| 20260507062931 | 11 | 99 | 6.4 | 11.3 | 0.00 | 0.00 | 0.00 | 89 | 1010.0 |
| 20260507062429 | 11 | 101 | 6.4 | 8.0 | 0.00 | 0.00 | 0.00 | 88 | 1009.9 |
| 20260507061926 | 12 | 57 | 6.4 | 8.0 | 0.00 | 0.00 | 0.00 | 88 | 1010.2 |
| 20260507061424 | 12 | 79 | 1.6 | 3.2 | 0.00 | 0.00 | 0.00 | 88 | 1010.0 |
| 20260507060922 | 12 | 112 | 0.0 | 0.0 | 0.00 | 0.00 | 0.00 | 88 | 1010.1 |
| 20260507060418 | 12 | 108 | 1.6 | 3.2 | 0.00 | 0.00 | 0.00 | 88 | 1010.0 |
| 20260507055915 | 12 | 99 | 0.0 | 1.6 | 0.00 | 0.00 | 0.00 | 87 | 1010.1 |
| 20260507055410 | 12 | 69 | 1.6 | 9.7 | 0.00 | 0.00 | 0.00 | 87 | 1010.1 |
| 20260507054908 | 12 | 94 | 0.0 | 3.2 | 0.00 | 0.00 | 0.00 | 88 | 1010.2 |
| 20260507054403 | 12 | 64 | 4.8 | 8.0 | 0.00 | 0.00 | 0.00 | 88 | 1010.4 |
| 20260507053901 | 12 | 86 | 0.0 | 0.0 | 0.00 | 0.00 | 0.00 | 89 | 1010.7 |
| 20260507053359 | 12 | 122 | 1.6 | 1.6 | 0.00 | 0.00 | 0.00 | 88 | 1010.8 |
| 20260507052857 | 12 | 121 | 0.0 | 3.2 | 0.00 | 0.00 | 0.00 | 88 | 1010.5 |
| 20260507052354 | 12 | 73 | 1.6 | 4.8 | 0.00 | 0.00 | 0.00 | 88 | 1010.4 |
| 20260507051851 | 12 | 108 | 0.0 | 1.6 | 0.00 | 0.00 | 0.00 | 89 | 1010.5 |
| 20260507051349 | 12 | 3 | 1.6 | 1.6 | 0.00 | 0.00 | 0.00 | 89 | 1010.4 |
| 20260507050845 | 12 | 287 | 1.6 | 3.2 | 0.00 | 0.00 | 0.00 | 89 | 1010.0 |
| 20260507050342 | 12 | 76 | 3.2 | 8.0 | 0.00 | 0.00 | 0.00 | 89 | 1009.9 |
| 20260507045839 | 12 | 79 | 4.8 | 11.3 | 0.00 | 0.00 | 0.00 | 89 | 1009.9 |
| 20260507045335 | 12 | 77 | 3.2 | 8.0 | 0.00 | 0.00 | 0.00 | 89 | 1010.0 |
| 20260507044833 | 13 | 84 | 4.8 | 8.0 | 0.00 | 0.00 | 0.00 | 89 | 1010.0 |
| 20260507044329 | 13 | 72 | 4.8 | 8.0 | 0.00 | 0.00 | 0.00 | 89 | 1010.0 |